Location: Nied?wied?
(53.3665°N, 14.8184°E)
Time: 21:25:44
(UTC+00:00)

Cosmos 2221 Rocket - Pass Details

Date: 03 March 2021
Orbit: 621 x 647 km, 82.5° (Epoch: 12 April)

Event Time Altitude Azimuth Distance (km) Brightness Sun altitude
Rises 18:38:35 0° 352° (N) 2,916 7.3 -18.0°
Reaches altitude 10° 18:40:55 10° 359° (N) 2,005 6.4 -18.3°
Maximum altitude 18:45:11 45° 73° (ENE) 855 3.9 -18.9°
Enters shadow 18:45:43 43° 94° (E) 885 3.8 -19.0°
